Flag for U.S.A. Weather past 2 weeks in Owensboro, Kentucky, U.S.A.

Now
62 °F

Fog.


Feels Like: 62 °F
Forecast: 61 / 80 °F
Wind: No wind

Location: Owensboro / Daviess

Current Time: Sep 20, 2014 at 7:52:16 AM

Latest Report: Sep 20, 2014 at 6:56 AM


Visibility: 6 mi

Pressure: 30.07 "Hg

Humidity: 93%

Dew point: 60 °F

Location of OwensboroLocation

Historic Weather in Owensboro — Graph

°F

Owensboro temperature yesterday

Maximum temperature yesterday: 81 °F (at 2:56 PM)
Minimum temperature yesterday: 57 °F (at 6:56 AM)
Average temperature yesterday: 69 °F

Past Weeks' High & Low Weather Summary

 TemperatureHumidityPressure
High92 °F (Sep 5, 1:56 PM)100% (Sep 5, 6:56 AM)30.33 "Hg (Sep 5, 6:56 AM)
Low48 °F (Sep 17, 3:56 AM)39% (Sep 8, 4:56 PM)29.77 "Hg (Sep 10, 6:56 PM)
Average68 °F75%30.08 "Hg
* Reported Sep 5 6:56 AM — Sep 20 6:56 AM, Owensboro, Weather by CustomWeather, © 2014

Note: Actual official high and low records may vary slightly from our data, if they occured in-between our weather recording intervals... More about our weather records

Advertising

Owensboro weather history for previous 24 hours

 ConditionsComfort  
Time TempWeatherWind HumidityBarometerVisibility
6:56 AM
Sep 20
62 °FFog.No wind93%30.07 "Hg6 mi
5:56 AM61 °FClear.5 mph93%30.05 "Hg10 mi
4:56 AM61 °FClear.No wind93%30.04 "Hg10 mi
3:56 AM62 °FClear.No wind90%30.02 "Hg10 mi
2:56 AM62 °FClear.6 mph90%30.01 "Hg10 mi
1:56 AM62 °FPassing clouds.3 mph90%30.03 "Hg10 mi
12:56 AM63 °FPassing clouds.No wind87%30.04 "Hg10 mi
11:56 PM
Sep 19
62 °FClear.No wind87%30.04 "Hg10 mi
10:56 PM64 °FClear.No wind84%30.04 "Hg10 mi
9:56 PM67 °FClear.No wind78%30.04 "Hg10 mi
8:56 PM69 °FClear.No wind71%30.04 "Hg10 mi
7:56 PM71 °FClear.No wind66%30.03 "Hg10 mi
6:56 PM76 °FSunny.3 mph54%30.02 "Hg10 mi
5:56 PM79 °FSunny.6 mph50%30.02 "Hg10 mi
4:56 PM81 °FSunny.10 mph44%30.02 "Hg10 mi
3:56 PM81 °FSunny.12 mph42%30.02 "Hg10 mi
2:56 PM81 °FSunny.6 mph39%30.04 "Hg10 mi
1:56 PM79 °FSunny.8 mph45%30.05 "Hg10 mi
12:56 PM78 °FSunny.7 mph47%30.08 "Hg10 mi
11:56 AM76 °FSunny.8 mph50%30.10 "Hg10 mi
10:56 AM73 °FSunny.10 mph55%30.11 "Hg10 mi
9:56 AM69 °FSunny.8 mph59%30.12 "Hg10 mi
8:56 AM65 °FSunny.7 mph65%30.11 "Hg10 mi
7:56 AM61 °FSunny.9 mph72%30.10 "Hg10 mi
Weather by CustomWeather, © 2014

See weather overviewHow to use our weather pages